STARLINK-1622, 46128

Orbit data source: Space-Track

STARLINK-1622, 46128 is a payload satellite owned by SpaceX/Seattle (US) in LEO that was launched on Tue, 18 Aug 2020 UTC via an FALCON 9 launch vehicle from the Air Force Eastern Test Range (AFETR). Payload-class satellites include a variety of spacecraft equipped with specific instruments for various scientific and technological missions. These include communications satellites like Starlink; space stations such as the ISS; scientific satellites like the Hubble; Earth observation satellites from companies like Planet Labs, Umbra, and HawkEye 360; GPS; miniature CubeSats for education and research; and military/defense satellites.

Loading next visibility...
Identifier
46128, 2020-057M
Orbit
LEO
Country
Flag of USUS
Related business
Manufacturer
SpaceX/Seattle
Mission
Partially operational Commercial Communications
Bus & Motor
STARLINK, Unknown motor
Mass
260 kg wet, ~248 kg dry
Launch date (UTC)
2020-08-18 (6 years ago)
Launch vehicle
FALCON 9
Launch site
Air Force Eastern Test Range (AFETR)
Object type
Payload
Rocket body
Debris
Shape & HBR
Box + 1 Pan, 10.1 m
Radar Cross Section
13.562 m², Large (>1 m²)

Expand to show TLE details & history
Last TLE update: 9 hours ago

TLE from 9 hours ago
0 STARLINK-1622
1 46128U 20057M   26122.95646469  .00124506  00000-0  82176-3 0  9992
2 46128  53.0194 315.9783 0001656 315.7817  44.3069 15.74745743315889
Epoch: 2026-05-02T22:57Z
TLE epoch observation values (Epoch: 2026-05-02T22:57:18.549Z)
Latitude
0.00002°
Longitude
110.7841°
Altitude
345.46 km
Speed
7.703 km/s
True Right ascension
21h 03m 54s
True Declination
0° 00' 00"
Sunlit
Object was in daylight at epoch
Visualization orbit readout
Latitude
Unknown
Longitude
Unknown
Altitude
Unknown
Speed
Unknown
Apparent Right ascension
Unknown
Apparent Declination
Unknown
Sunlit
N/A
Visualization observer readout
Local Sidereal Time
15:47:40
Azimuth
Unknown
Elevation
Unknown
Doppler factor
Unknown
Orbital elements
Apogee altitude
346.753 km
Perigee altitude
344.526 km
Semi-major axis
6,723.776 km
Eccentricity
0.00017
Inclination
53.0194°
RAAN
315.9783°
Arg. of periapsis
315.7817°
True anomaly
44.32016°
Mean anomaly
44.3069°
Eccentric anomaly
44.31353°
Mean motion
3.93662 °/min
Orbital period
91.45 mins
BSTAR
0.00082176
Loading maneuver chart data...
Computing Atmospheric mass density...
Loading historical data...
Loading historical data...
Loading historical data...
Loading historical data...
Loading historical data...
Loading historical data...
Loading historical data...

Documentation

Showing up to 5 results
|